Skip Page Navigation
NASA JPL Caltech
NASA Logo - Jet Propulsion Laboratory + View the NASA Portal
+ Center for Near-Earth Object Studies
JPL Home Earth Solar System Stars & Galaxies Technology
JPL Solar System Dynamics
BODIES ORBITS EPHEMERIDES TOOLS PHYSICAL DATA DISCOVERY FAQ SITE MAP
IMPORTANT: The SSD Announcement email list is now available. Major changes are coming in the near future, including possible hostname and/or URL changes. To be notified of such changes, subscribe to this email list.

Please visit this page for more details.


JPL Small-Body Database Browser
Search: [ help ]  
3642 Frieden (1953 XL1)
Classification: Main-belt Asteroid          SPK-ID: 2003642
Ephemeris | Orbit Diagram | Orbital Elements | Mission Design | Physical Parameters | Discovery Circumstances ]

[ show orbit diagram ]
Orbital Elements at Epoch 2458600.5 (2019-Apr-27.0) TDB
Reference: JPL 34 (heliocentric ecliptic J2000)
 Element Value Uncertainty (1-sigma)   Units 
e .08110293305898957 4.1296e-08  
a 2.787230744628769 1.3662e-08 au
q 2.561178156127185 1.1872e-07 au
i 13.47232613698359 4.6857e-06 deg
node 131.2805472043512 1.8601e-05 deg
peri 14.69474557951384 3.3609e-05 deg
M 329.7997145428947 2.7926e-05 deg
tp 2458743.082544199911
(2019-Sep-16.58254420)
0.00013204 TDB
period 1699.643401876908
4.65
1.2497e-05
3.421e-08
d
yr
n .2118091357295617 1.5574e-09 deg/d
Q 3.013283333130354 1.477e-08 au
  Orbit Determination Parameters
   # obs. used (total)      2378  
   data-arc span      30578 days (83.72 yr)  
   first obs. used      1936-03-19  
   last obs. used      2019-12-07  
   planetary ephem.      DE431  
   SB-pert. ephem.      SB431-N16  
   condition code      0  
   norm. resid. RMS      .44603  
   source      ORB  
   producer      Otto Matic  
   solution date      2019-Dec-13 21:33:27  

Additional Information
 Earth MOID = 1.5765 au 
 Jupiter MOID = 2.01624 au 
 T_jup = 3.286 
[ show covariance matrix ]

Ephemeris | Orbit Diagram | Orbital Elements | Mission Design | Physical Parameters | Discovery Circumstances ]

Physical Parameter Table
Parameter Symbol Value Units Sigma Reference Notes
absolute magnitude H 11.2   n/a MPO337281  
diameter diameter 31.899 km 0.126 urn:nasa:pds:neowise_diameters_albedos::2.0[mainbelt] (http://adsabs.harvard.edu/abs/2014ApJ...791..121M)  
rotation period rot_per 14.491 h n/a LCDB (Rev. 2019-January); Warner et al., 2009 Published Reference List:
[Warner, B.D. (2006) Minor Planet Bull. 33, 85-88.]
geometric albedo albedo 0.071   0.007 urn:nasa:pds:neowise_diameters_albedos::2.0[mainbelt] (http://adsabs.harvard.edu/abs/2014ApJ...791..121M)  
SMASSII spectral type spec_B C   n/a EAR-A-5-DDR-TAXONOMY-V4.0 based on a high-resolution spectrum by Xu et al. (1995) or Bus and Binzel (2002)

3642 Frieden (1953 XL1)          Discovered 1953-Dec-04 by Gessner, H. at Sonneberg
Reference: DISCOVERY.DBLast Updated: 2003-08-29

Alternate Designations
 1953 XL1 = 1936 FU = 1945 BD = 1950 FK = 1959 CB1 = 1959 EB1 = 1978 GB3 = 1982 BK8 = A908 ED 
Ephemeris | Orbit Diagram | Orbital Elements | Mission Design | Physical Parameters | Discovery Circumstances ]
ABOUT SSD CREDITS/AWARDS PRIVACY/COPYRIGHT GLOSSARY LINKS
FirstGov 2020-Jan-19 16:39 UT
(server date/time)  
NASA Home Page
Site Manager:   Ryan S. Park
Webmaster  Alan B. Chamberlin